Year,Month,Day,Hour,Minute,Value (Times are PST for temperature in C)
2016,12,07,10,19,0.50
2016,12,07,10,20,0.50
2016,12,07,10,21,0.50
2016,12,07,10,22,0.60
2016,12,07,10,23,0.60
2016,12,07,10,24,0.70
2016,12,07,10,25,0.70
2016,12,07,10,26,0.70
2016,12,07,10,27,0.70
2016,12,07,10,28,0.70
2016,12,07,10,29,0.80
2016,12,07,10,30,0.80
2016,12,07,10,31,0.80
2016,12,07,10,32,0.80
2016,12,07,10,33,0.90
2016,12,07,10,34,0.90
2016,12,07,10,35,0.90
2016,12,07,10,36,1.00
2016,12,07,10,37,1.00
2016,12,07,10,38,1.00
2016,12,07,10,39,1.10
2016,12,07,10,40,1.10
2016,12,07,10,41,1.10
2016,12,07,10,42,1.10
2016,12,07,10,43,1.20
2016,12,07,10,44,1.20
2016,12,07,10,45,1.20
2016,12,07,10,46,1.20
2016,12,07,10,47,1.20
2016,12,07,10,48,1.30
2016,12,07,10,49,1.30
2016,12,07,10,50,1.30
2016,12,07,10,51,1.30
2016,12,07,10,52,1.30
2016,12,07,10,53,1.30
2016,12,07,10,54,1.30
2016,12,07,10,55,1.30
2016,12,07,10,56,1.30
2016,12,07,10,57,1.30
2016,12,07,10,58,1.40
2016,12,07,10,59,1.40
2016,12,07,11,00,1.40
2016,12,07,11,01,1.40
2016,12,07,11,02,1.40
2016,12,07,11,03,1.40
2016,12,07,11,04,1.50
2016,12,07,11,05,1.50
2016,12,07,11,06,1.50
2016,12,07,11,07,1.50
2016,12,07,11,08,1.60
2016,12,07,11,09,1.60
2016,12,07,11,10,1.60
2016,12,07,11,11,1.60
2016,12,07,11,12,1.60
2016,12,07,11,13,1.60
2016,12,07,11,14,1.60
2016,12,07,11,15,1.70
2016,12,07,11,16,1.70
2016,12,07,11,17,1.70
2016,12,07,11,18,1.70
2016,12,07,11,19,1.70
2016,12,07,11,20,1.70
2016,12,07,11,21,1.80
2016,12,07,11,22,1.80
2016,12,07,11,23,1.80
2016,12,07,11,24,1.80
2016,12,07,11,25,1.90
2016,12,07,11,26,1.90
2016,12,07,11,27,1.90
2016,12,07,11,28,1.90
2016,12,07,11,29,1.80
2016,12,07,11,30,1.90
2016,12,07,11,31,1.90
2016,12,07,11,32,1.90
2016,12,07,11,33,1.90
2016,12,07,11,34,1.90
2016,12,07,11,35,1.90
2016,12,07,11,36,1.90
2016,12,07,11,37,1.90
2016,12,07,11,38,1.90
2016,12,07,11,39,1.90
2016,12,07,11,40,1.90
2016,12,07,11,41,1.90
2016,12,07,11,42,1.90
2016,12,07,11,43,2.00
2016,12,07,11,44,2.10
2016,12,07,11,45,2.10
2016,12,07,11,46,2.10
2016,12,07,11,47,2.10
2016,12,07,11,48,2.20
2016,12,07,11,49,2.20
2016,12,07,11,50,2.10
2016,12,07,11,51,2.10
2016,12,07,11,52,2.10
2016,12,07,11,53,2.10
2016,12,07,11,54,2.20
2016,12,07,11,55,2.20
2016,12,07,11,56,2.10
2016,12,07,11,57,2.10
2016,12,07,11,58,2.10
2016,12,07,11,59,2.10
2016,12,07,12,00,2.00
2016,12,07,12,01,2.00
2016,12,07,12,02,1.90
2016,12,07,12,03,1.90
2016,12,07,12,04,1.90
2016,12,07,12,05,1.90
2016,12,07,12,06,1.90
2016,12,07,12,07,1.90
2016,12,07,12,08,1.90
2016,12,07,12,09,1.90
2016,12,07,12,10,2.00
2016,12,07,12,11,2.00
2016,12,07,12,12,2.00
2016,12,07,12,13,2.00
2016,12,07,12,14,2.00
2016,12,07,12,15,2.00
2016,12,07,12,16,1.90
2016,12,07,12,17,1.90
2016,12,07,12,18,1.90
2016,12,07,12,19,1.90
2016,12,07,12,20,1.90
2016,12,07,12,21,1.90
2016,12,07,12,22,2.00
2016,12,07,12,23,2.00
2016,12,07,12,24,1.90
2016,12,07,12,25,2.00
2016,12,07,12,26,2.00
2016,12,07,12,27,2.00
2016,12,07,12,28,2.00
2016,12,07,12,29,2.00
2016,12,07,12,30,1.90
2016,12,07,12,31,1.90
2016,12,07,12,32,1.90
2016,12,07,12,33,1.90
2016,12,07,12,34,1.90
2016,12,07,12,35,1.80
2016,12,07,12,36,1.80
2016,12,07,12,37,1.80
2016,12,07,12,38,1.80
2016,12,07,12,39,1.80
2016,12,07,12,40,1.80
2016,12,07,12,41,1.90
2016,12,07,12,42,1.90
2016,12,07,12,43,1.90
2016,12,07,12,44,1.90
2016,12,07,12,45,1.90
2016,12,07,12,46,1.90
2016,12,07,12,47,1.90
2016,12,07,12,48,1.90
2016,12,07,12,49,1.90
2016,12,07,12,50,1.90
2016,12,07,12,51,1.90
2016,12,07,12,52,1.90
2016,12,07,12,53,1.90
2016,12,07,12,54,1.90
2016,12,07,12,55,1.90
2016,12,07,12,56,1.90
2016,12,07,12,57,2.00
2016,12,07,12,58,2.00
2016,12,07,12,59,2.10
2016,12,07,13,00,2.10
2016,12,07,13,01,2.10
2016,12,07,13,02,2.10
2016,12,07,13,03,2.00
2016,12,07,13,04,2.00
2016,12,07,13,05,1.90
2016,12,07,13,06,1.90
2016,12,07,13,07,1.90
2016,12,07,13,08,1.90
2016,12,07,13,09,1.90
2016,12,07,13,10,2.00
2016,12,07,13,11,2.00
2016,12,07,13,12,2.10
2016,12,07,13,13,2.10
2016,12,07,13,14,2.10
2016,12,07,13,15,2.10
2016,12,07,13,16,2.10
2016,12,07,13,17,2.10
2016,12,07,13,18,2.10
2016,12,07,13,19,2.10
2016,12,07,13,20,2.10
2016,12,07,13,21,2.10
2016,12,07,13,22,2.20
2016,12,07,13,23,2.20
2016,12,07,13,24,2.20
2016,12,07,13,25,2.20
2016,12,07,13,26,2.20
2016,12,07,13,27,2.20
2016,12,07,13,28,2.20
2016,12,07,13,29,2.20
2016,12,07,13,30,2.20
2016,12,07,13,31,2.20
2016,12,07,13,32,2.20
2016,12,07,13,33,2.20
2016,12,07,13,34,2.20
2016,12,07,13,35,2.30
2016,12,07,13,36,2.30
2016,12,07,13,37,2.30
2016,12,07,13,38,2.30
2016,12,07,13,39,2.30
2016,12,07,13,40,2.30
2016,12,07,13,41,2.30
2016,12,07,13,42,2.30
2016,12,07,13,43,2.30
2016,12,07,13,44,2.30
2016,12,07,13,45,2.30
2016,12,07,13,46,2.30
2016,12,07,13,47,2.30
2016,12,07,13,48,2.30
2016,12,07,13,49,2.30
2016,12,07,13,50,2.30
2016,12,07,13,51,2.30
2016,12,07,13,52,2.30
2016,12,07,13,53,2.30
2016,12,07,13,54,2.40
2016,12,07,13,55,2.40
2016,12,07,13,56,2.40
2016,12,07,13,57,2.40
2016,12,07,13,58,2.40
2016,12,07,13,59,2.40
2016,12,07,14,00,2.40
2016,12,07,14,01,2.40
2016,12,07,14,02,2.40
2016,12,07,14,03,2.40
2016,12,07,14,04,2.40
2016,12,07,14,05,2.40
2016,12,07,14,06,2.40
2016,12,07,14,07,2.40
2016,12,07,14,08,2.40
2016,12,07,14,09,2.50
2016,12,07,14,10,2.50
2016,12,07,14,11,2.50
2016,12,07,14,12,2.50
2016,12,07,14,13,2.50
2016,12,07,14,14,2.50
2016,12,07,14,15,2.50
2016,12,07,14,16,2.50
2016,12,07,14,17,2.50
2016,12,07,14,18,2.50
2016,12,07,14,19,2.50
2016,12,07,14,20,2.50
2016,12,07,14,21,2.50
2016,12,07,14,22,2.50
2016,12,07,14,23,2.40
2016,12,07,14,24,2.40
2016,12,07,14,25,2.30
2016,12,07,14,26,2.30
2016,12,07,14,27,2.30
2016,12,07,14,28,2.30
2016,12,07,14,29,2.30
2016,12,07,14,30,2.30
2016,12,07,14,31,2.30
2016,12,07,14,32,2.30
2016,12,07,14,33,2.30
2016,12,07,14,34,2.30
2016,12,07,14,35,2.30
2016,12,07,14,36,2.30
2016,12,07,14,37,2.30
2016,12,07,14,38,2.30
2016,12,07,14,39,2.30
2016,12,07,14,40,2.30
2016,12,07,14,41,2.30
2016,12,07,14,42,2.30
2016,12,07,14,43,2.30
2016,12,07,14,44,2.30
2016,12,07,14,45,2.30
2016,12,07,14,46,2.30
2016,12,07,14,47,2.30
2016,12,07,14,48,2.30
2016,12,07,14,49,2.20
2016,12,07,14,50,2.20
2016,12,07,14,51,2.30
2016,12,07,14,52,2.30
2016,12,07,14,53,2.30
2016,12,07,14,54,2.20
2016,12,07,14,55,2.20
2016,12,07,14,56,2.20
2016,12,07,14,57,2.20
2016,12,07,14,58,2.20
2016,12,07,14,59,2.20
2016,12,07,15,00,2.20
2016,12,07,15,01,2.20
2016,12,07,15,02,2.20
2016,12,07,15,03,2.10
2016,12,07,15,04,2.10
2016,12,07,15,05,2.10
2016,12,07,15,06,2.00
2016,12,07,15,07,2.00
2016,12,07,15,08,1.90
2016,12,07,15,09,1.90
2016,12,07,15,10,1.90
2016,12,07,15,11,1.90
2016,12,07,15,12,1.90
2016,12,07,15,13,1.90
2016,12,07,15,14,1.90
2016,12,07,15,15,1.90
2016,12,07,15,16,1.90
2016,12,07,15,17,1.90
2016,12,07,15,18,1.80
2016,12,07,15,19,1.80
2016,12,07,15,20,1.80
2016,12,07,15,21,1.80
2016,12,07,15,22,1.80
2016,12,07,15,23,1.80
2016,12,07,15,24,1.80
2016,12,07,15,25,1.80
2016,12,07,15,26,1.80
2016,12,07,15,27,1.80
2016,12,07,15,28,1.70
2016,12,07,15,29,1.70
2016,12,07,15,30,1.70
2016,12,07,15,31,1.70
2016,12,07,15,32,1.70
2016,12,07,15,33,1.70
2016,12,07,15,34,1.60
2016,12,07,15,35,1.60
2016,12,07,15,36,1.60
2016,12,07,15,37,1.60
2016,12,07,15,38,1.50
2016,12,07,15,39,1.50
2016,12,07,15,40,1.40
2016,12,07,15,41,1.40
2016,12,07,15,42,1.40
2016,12,07,15,43,1.30
2016,12,07,15,44,1.30
2016,12,07,15,45,1.30
2016,12,07,15,46,1.30
2016,12,07,15,47,1.20
2016,12,07,15,48,1.20
2016,12,07,15,49,1.20
2016,12,07,15,50,1.20
2016,12,07,15,51,1.20
2016,12,07,15,52,1.10
2016,12,07,15,53,1.10
2016,12,07,15,54,1.00
2016,12,07,15,55,1.00
2016,12,07,15,56,0.90
2016,12,07,15,57,0.90
2016,12,07,15,58,0.90
2016,12,07,15,59,0.90
2016,12,07,16,00,0.80
2016,12,07,16,01,0.80
2016,12,07,16,02,0.80
2016,12,07,16,03,0.80
2016,12,07,16,04,0.80
2016,12,07,16,05,0.80
2016,12,07,16,06,0.80
2016,12,07,16,07,0.70
2016,12,07,16,08,0.70
2016,12,07,16,09,0.70
2016,12,07,16,10,0.70
2016,12,07,16,11,0.60
2016,12,07,16,12,0.60
2016,12,07,16,13,0.60
2016,12,07,16,14,0.60
2016,12,07,16,15,0.60
2016,12,07,16,16,0.60
2016,12,07,16,17,0.60
2016,12,07,16,18,0.60
2016,12,07,16,19,0.50
2016,12,07,16,20,0.50
2016,12,07,16,21,0.50
2016,12,07,16,22,0.50
2016,12,07,16,23,0.50
2016,12,07,16,24,0.50
2016,12,07,16,25,0.50
2016,12,07,16,26,0.50
2016,12,07,16,27,0.50
2016,12,07,16,28,0.50
2016,12,07,16,29,0.50
2016,12,07,16,30,0.50
